CZ-6A DEB, 60800

Orbit data source: Space-Track

CZ-6A DEB, 60800 is space debris in LEO originally from a launch on Tue, 06 Aug 2024 UTC launched from the Taiyaun Space Center, China (TSC). Debris objects in space refer to the collection of defunct objects orbiting the Earth. Examples of debris include non-operational satellites, rocket bodies, and fragments generated from explosions, collisions, or faulty payload assembly.

Loading next visibility...
Identifier
60800, 2024-140GB
Orbit
LEO
Country
Flag of CNCN / PRC
Related business
Manufacturer
SAST
Mission
Spacecraft
Bus & Motor
Unknown
Mass
Unknown
Launch date (UTC)
2024-08-06 (2 years ago)
Launch vehicle
Unknown
Launch site
Taiyaun Space Center, China (TSC)
Object type
Payload
Rocket body
Debris
Shape & HBR
Unknown shape, 0.2 m
Radar Cross Section
Small (<0.1 m²)

Expand to show TLE details & history
Last TLE update: 12 hours ago

TLE from 12 hours ago
0 CZ-6A DEB
1 60800U 24140GB  26118.47706366  .00000234  00000-0  11567-3 0  9994
2 60800  88.9984 281.3677 0075780   4.4319 355.7520 14.12640515 88163
Epoch: 2026-04-28T11:26Z
TLE epoch observation values (Epoch: 2026-04-28T11:26:58.300Z)
Latitude
-0.00009°
Longitude
-106.82704°
Altitude
798.756 km
Speed
7.482 km/s
True Right ascension
18h 45m 28s
True Declination
0° 00' 00"
Sunlit
Object was in daylight at epoch
Visualization orbit readout
Latitude
Unknown
Longitude
Unknown
Altitude
Unknown
Speed
Unknown
Apparent Right ascension
Unknown
Apparent Declination
Unknown
Sunlit
N/A
Visualization observer readout
Local Sidereal Time
06:30:20
Azimuth
Unknown
Elevation
Unknown
Doppler factor
Unknown
Orbital elements
Apogee altitude
902.066 km
Perigee altitude
792.557 km
Semi-major axis
7,225.449 km
Eccentricity
0.00758
Inclination
88.9984°
RAAN
281.3677°
Arg. of periapsis
4.4319°
True anomaly
355.68706°
Mean anomaly
355.752°
Eccentric anomaly
355.71959°
Mean motion
3.53383 °/min
Orbital period
101.87 mins
BSTAR
0.00011567
Loading maneuver chart data...
Computing Atmospheric mass density...
Loading historical data...
Loading historical data...
Loading historical data...
Loading historical data...
Loading historical data...
Loading historical data...
Loading historical data...

Documentation

Showing up to 5 results
|